• In Belarus
  • List of Countries
  • For 7 days
  • Water Temperature
  • Satellite Maps
  • Weather Map
  • Weather Widgets
  • user-avatar
    Login

    Hourly Weather Zagayno

    Today, 24 October, Wednesday

    Time Temperature Precipitation Wind Pressure Humidity
    00:00 +3°C° 0 mm 2 mps 733 mmHg 85%
    01:00 +3°C° 0 mm 2 mps 732 mmHg 85%
    02:00 +2°C° 0 mm 3 mps 732 mmHg 85%
    03:00 +2°C° 0 mm 3 mps 731 mmHg 85%
    04:00 +2°C° 0.1 mm 3 mps 730 mmHg 87%
    05:00 +2°C° 0.1 mm 3 mps 730 mmHg 88%
    06:00 +2°C° 0.1 mm 3 mps 729 mmHg 89%
    07:00 +2°C° 0.4 mm 3 mps 729 mmHg 89%
    08:00 +2°C° 0.4 mm 3 mps 729 mmHg 89%
    09:00 +3°C° 0.4 mm 4 mps 728 mmHg 90%
    10:00 +3°C° 0.4 mm 3 mps 728 mmHg 87%
    11:00 +3°C° 0.4 mm 3 mps 728 mmHg 85%
    12:00 +4°C° 0.4 mm 3 mps 728 mmHg 82%
    13:00 +4°C° 0.3 mm 3 mps 728 mmHg 80%
    14:00 +5°C° 0.3 mm 2 mps 728 mmHg 79%
    15:00 +5°C° 0.3 mm 2 mps 728 mmHg 77%
    16:00 +5°C° 0.1 mm 2 mps 728 mmHg 80%
    17:00 +4°C° 0.1 mm 2 mps 728 mmHg 84%
    18:00 +4°C° 0.1 mm 2 mps 728 mmHg 87%
    19:00 +4°C° 0.2 mm 2 mps 728 mmHg 88%
    20:00 +4°C° 0.2 mm 2 mps 728 mmHg 89%
    21:00 +4°C° 0.2 mm 2 mps 728 mmHg 90%
    22:00 +4°C° 0.1 mm 2 mps 727 mmHg 91%
    23:00 +3°C° 0.1 mm 2 mps 727 mmHg 92%

    Tomorrow, 25 October, Thursday

    Time Temperature Precipitation Wind Pressure Humidity
    00:00 +3°C° 0.1 mm 2 mps 727 mmHg 93%
    01:00 +2°C° 0.1 mm 3 mps 727 mmHg 93%
    02:00 +2°C° 0.1 mm 3 mps 727 mmHg 93%
    03:00 +2°C° 0.1 mm 3 mps 727 mmHg 93%
    04:00 +2°C° 0.1 mm 3 mps 727 mmHg 93%
    05:00 +2°C° 0.1 mm 3 mps 727 mmHg 92%
    06:00 +2°C° 0.1 mm 3 mps 726 mmHg 91%
    07:00 +2°C° 0.1 mm 3 mps 727 mmHg 90%
    08:00 +1°C° 0.1 mm 4 mps 727 mmHg 89%
    09:00 +1°C° 0.1 mm 4 mps 727 mmHg 88%
    10:00 +3°C° 0.1 mm 4 mps 727 mmHg 85%
    11:00 +3°C° 0.1 mm 4 mps 727 mmHg 82%
    12:00 +3°C° 0.1 mm 4 mps 727 mmHg 79%
    13:00 +3°C° 0 mm 4 mps 727 mmHg 77%
    14:00 +3°C° 0 mm 4 mps 727 mmHg 76%
    15:00 +3°C° 0 mm 4 mps 727 mmHg 75%
    16:00 +3°C° 0 mm 4 mps 727 mmHg 77%
    17:00 +2°C° 0 mm 3 mps 727 mmHg 79%
    18:00 +2°C° 0 mm 3 mps 728 mmHg 82%
    19:00 +1°C° 0 mm 4 mps 727 mmHg 83%
    20:00 0°C° 0 mm 4 mps 727 mmHg 84%
    21:00 0°C° 0 mm 4 mps 727 mmHg 85%
    22:00 0°C° 0 mm 4 mps 727 mmHg 85%
    23:00 0°C° 0 mm 5 mps 727 mmHg 85%

    Day after tomorrow, 26 October, Friday

    Time Temperature Precipitation Wind Pressure Humidity
    00:00 0°C° 0 mm 5 mps 727 mmHg 85%
    01:00 -1°C° 0 mm 5 mps 727 mmHg 86%
    02:00 -1°C° 0 mm 5 mps 727 mmHg 87%
    03:00 -2°C° 0 mm 5 mps 727 mmHg 88%
    04:00 -2°C° 0 mm 5 mps 728 mmHg 88%
    05:00 -2°C° 0 mm 5 mps 728 mmHg 89%
    06:00 -2°C° 0 mm 5 mps 728 mmHg 89%
    07:00 -2°C° 0 mm 5 mps 728 mmHg 87%
    08:00 -2°C° 0 mm 5 mps 728 mmHg 85%
    09:00 -1°C° 0 mm 5 mps 729 mmHg 83%
    10:00 -2°C° 0 mm 6 mps 729 mmHg 81%
    11:00 -1°C° 0 mm 6 mps 729 mmHg 78%
    12:00 -1°C° 0 mm 6 mps 730 mmHg 76%
    13:00 -1°C° 0 mm 6 mps 730 mmHg 76%
    14:00 -1°C° 0 mm 6 mps 730 mmHg 77%
    15:00 -1°C° 0 mm 6 mps 731 mmHg 78%
    16:00 0°C° 0 mm 5 mps 731 mmHg 77%
    17:00 0°C° 0 mm 5 mps 732 mmHg 77%
    18:00 0°C° 0 mm 5 mps 732 mmHg 77%
    19:00 0°C° 0 mm 5 mps 732 mmHg 77%
    20:00 -1°C° 0 mm 5 mps 733 mmHg 78%
    21:00 -1°C° 0 mm 4 mps 733 mmHg 78%
    22:00 -1°C° 0 mm 4 mps 733 mmHg 81%
    23:00 -2°C° 0 mm 4 mps 733 mmHg 84%

    27 October, Saturday

    Time Temperature Precipitation Wind Pressure Humidity
    00:00 -2°C° 0 mm 4 mps 734 mmHg 87%
    01:00 -2°C° 0 mm 4 mps 734 mmHg 88%
    02:00 -2°C° 0 mm 4 mps 734 mmHg 90%
    03:00 -2°C° 0 mm 4 mps 735 mmHg 91%
    04:00 -2°C° 0 mm 4 mps 735 mmHg 92%
    05:00 -2°C° 0 mm 4 mps 735 mmHg 93%
    06:00 -2°C° 0 mm 4 mps 735 mmHg 94%
    07:00 -1°C° 0 mm 3 mps 735 mmHg 93%
    08:00 -1°C° 0 mm 3 mps 735 mmHg 91%
    09:00 0°C° 0 mm 3 mps 734 mmHg 90%
    10:00 -1°C° 0.1 mm 4 mps 734 mmHg 87%
    11:00 0°C° 0.1 mm 4 mps 733 mmHg 84%
    12:00 +1°C° 0.1 mm 5 mps 732 mmHg 81%
    13:00 +1°C° 0.7 mm 5 mps 731 mmHg 82%
    14:00 +1°C° 0.7 mm 5 mps 730 mmHg 84%
    15:00 +1°C° 0.7 mm 6 mps 729 mmHg 85%
    16:00 +1°C° 1.3 mm 5 mps 729 mmHg 87%
    17:00 +1°C° 1.3 mm 5 mps 728 mmHg 90%
    18:00 +3°C° 1.3 mm 4 mps 727 mmHg 92%
    19:00 +3°C° 1.1 mm 4 mps 727 mmHg 92%
    20:00 +3°C° 1.1 mm 4 mps 727 mmHg 92%
    21:00 +3°C° 1.1 mm 4 mps 727 mmHg 93%
    22:00 +3°C° 0.7 mm 4 mps 728 mmHg 92%
    23:00 +1°C° 0.7 mm 5 mps 728 mmHg 92%

    28 October, Sunday

    Time Temperature Precipitation Wind Pressure Humidity
    00:00 +1°C° 0.7 mm 5 mps 729 mmHg 92%
    01:00 +1°C° 0.7 mm 6 mps 730 mmHg 90%
    02:00 -1°C° 0.7 mm 7 mps 732 mmHg 88%
    03:00 -1°C° 0.7 mm 7 mps 733 mmHg 86%
    04:00 -1°C° 0.3 mm 7 mps 735 mmHg 85%
    05:00 -2°C° 0.3 mm 7 mps 736 mmHg 84%
    06:00 -2°C° 0.3 mm 6 mps 738 mmHg 83%
    07:00 -2°C° 0.1 mm 6 mps 739 mmHg 84%
    08:00 -2°C° 0.1 mm 5 mps 740 mmHg 85%
    09:00 -2°C° 0.1 mm 5 mps 742 mmHg 86%
    10:00 -2°C° 0 mm 5 mps 743 mmHg 85%
    11:00 -1°C° 0 mm 4 mps 744 mmHg 84%
    12:00 -1°C° 0 mm 4 mps 745 mmHg 83%
    13:00 -1°C° 0.1 mm 4 mps 746 mmHg 82%
    14:00 0°C° 0.1 mm 4 mps 746 mmHg 82%
    15:00 0°C° 0.1 mm 4 mps 747 mmHg 81%
    16:00 -1°C° 0 mm 4 mps 748 mmHg 83%
    17:00 -2°C° 0 mm 4 mps 749 mmHg 86%
    18:00 -1°C° 0 mm 3 mps 749 mmHg 89%
    19:00 -2°C° 0 mm 3 mps 750 mmHg 90%
    20:00 -2°C° 0 mm 3 mps 751 mmHg 91%
    21:00 -4°C° 0 mm 3 mps 751 mmHg 92%
    22:00 -4°C° 0 mm 3 mps 752 mmHg 92%
    23:00 -4°C° 0 mm 3 mps 752 mmHg 93%

    29 October, Monday

    Time Temperature Precipitation Wind Pressure Humidity
    00:00 -3°C° 0 mm 2 mps 753 mmHg 93%
    01:00 -4°C° 0 mm 2 mps 754 mmHg 93%
    02:00 -4°C° 0 mm 2 mps 754 mmHg 92%
    03:00 -4°C° 0 mm 2 mps 755 mmHg 91%
    04:00 -4°C° 0 mm 2 mps 755 mmHg 91%
    05:00 -4°C° 0 mm 2 mps 755 mmHg 90%
    06:00 -4°C° 0 mm 2 mps 755 mmHg 89%
    07:00 -2°C° 0 mm 1 mps 756 mmHg 88%
    08:00 -1°C° 0 mm 1 mps 756 mmHg 87%
    09:00 -1°C° 0 mm 1 mps 757 mmHg 86%
    10:00 0°C° 0 mm 1 mps 757 mmHg 83%
    11:00 0°C° 0 mm 1 mps 757 mmHg 80%
    12:00 +1°C° 0 mm 1 mps 757 mmHg 76%
    13:00 +1°C° 0 mm 1 mps 758 mmHg 76%
    14:00 +1°C° 0 mm 1 mps 758 mmHg 75%
    15:00 0°C° 0 mm 0 mps 758 mmHg 75%
    16:00 +1°C° 0 mm 1 mps 758 mmHg 77%
    17:00 +1°C° 0 mm 1 mps 758 mmHg 80%
    18:00 0°C° 0 mm 1 mps 758 mmHg 83%
    19:00 0°C° 0 mm 1 mps 758 mmHg 83%
    20:00 0°C° 0 mm 1 mps 758 mmHg 84%
    21:00 -2°C° 0 mm 2 mps 759 mmHg 85%
    22:00 -2°C° 0.1 mm 2 mps 759 mmHg 84%
    23:00 -2°C° 0.1 mm 2 mps 759 mmHg 84%

    30 October, Tuesday

    Time Temperature Precipitation Wind Pressure Humidity
    00:00 -2°C° 0.1 mm 3 mps 759 mmHg 84%
    01:00 -2°C° 0.1 mm 3 mps 759 mmHg 84%
    02:00 -2°C° 0.1 mm 3 mps 759 mmHg 83%
    03:00 -3°C° 0.1 mm 4 mps 759 mmHg 83%
    04:00 -3°C° 0 mm 4 mps 760 mmHg 82%
    05:00 -3°C° 0 mm 4 mps 760 mmHg 81%
    06:00 -4°C° 0 mm 4 mps 760 mmHg 80%
    07:00 -4°C° 0 mm 5 mps 760 mmHg 79%
    08:00 -4°C° 0 mm 5 mps 760 mmHg 78%
    09:00 -4°C° 0 mm 6 mps 760 mmHg 77%
    10:00 -4°C° 0 mm 6 mps 761 mmHg 73%
    11:00 -4°C° 0 mm 6 mps 761 mmHg 70%
    12:00 -3°C° 0 mm 6 mps 761 mmHg 67%
    13:00 -3°C° 0 mm 6 mps 761 mmHg 64%
    14:00 -3°C° 0 mm 6 mps 762 mmHg 62%
    15:00 -3°C° 0 mm 6 mps 762 mmHg 60%
    16:00 -4°C° 0 mm 6 mps 762 mmHg 63%
    17:00 -4°C° 0 mm 6 mps 762 mmHg 66%
    18:00 -5°C° 0 mm 6 mps 762 mmHg 69%
    19:00 -5°C° 0 mm 6 mps 763 mmHg 71%
    20:00 -5°C° 0 mm 6 mps 763 mmHg 73%
    21:00 -6°C° 0 mm 6 mps 764 mmHg 76%
    22:00 -6°C° 0 mm 6 mps 764 mmHg 76%
    23:00 -6°C° 0 mm 6 mps 764 mmHg 76%
    Show more